Location: Helsinki
(60.1699°N, 24.9384°E)
Time: 02:02:58
(UTC+02:00)

ISS - Pass Details

Date: 01 December 2021
Orbit: 413 x 422 km, 51.6° (Epoch: 22 January)

Event Time Altitude Azimuth Distance (km) Brightness Sun altitude
Rises 16:25:10 0° 235° (SW) 2,384 2.8 -6.9°
Reaches altitude 10° 16:27:41 10° 216° (SW) 1,518 0.4 -7.2°
Maximum altitude 16:30:07 18° 170° (S) 1,104 -1.3 -7.5°
Drops below altitude 10° 16:32:33 10° 125° (SE) 1,515 -1.2 -7.7°
Enters shadow 16:34:42 - 108° (ESE) 2,241 -0.5 -7.9°
